Showing default

MKA PN2 (RELEK), 40070

Orbit data source: Space-Track

MKA PN2 (RELEK), 40070 is a Commonwealth of Independent States-origin payload satellite in SSO that was launched on Tue, 08 Jul 2014 UTC via a SOYUZ-2-1B launch vehicle from the Tyuratam Missile And Space Complex (TTMTR). Payload-class satellites include a variety of spacecraft equipped with specific instruments for various scientific and technological missions. These include communications satellites like Starlink; space stations such as the ISS; scientific satellites like the Hubble; Earth observation satellites from companies like Planet Labs, Umbra, and HawkEye 360; GPS; miniature CubeSats for education and research; and military/defense satellites.

Loading next visibility...
Identifier
40070, 2014-037B
Orbit
SSO
Last TLE update
14 hours ago
Origin
Manufacturer
Lavochkin
Mission
Non-operational Civil Science
Bus & Motor
KARAT, Unknown motor
Mass
288 kg wet, 288 kg dry
Launch date (UTC)
2014-07-08 (11 years ago)
Launch vehicle
SOYUZ-2-1B
Launch site
Tyuratam Missile And Space Complex (TTMTR)
Object type
Payload
Rocket body
Debris
Shape & HBR
Box, 1 m
Radar Cross Section
1.500 m², Large (>1 m²)

Expand to show TLE details & history

TLE from 14 hours ago
0 MKA PN2 (RELEK)
1 40070U 14037B   25183.55915934  .00000597  00000-0  13312-3 0  9990
2 40070  98.0291 168.9310 0132829  75.8807 285.7111 14.55045174582231
Epoch: 2025-07-02T13:25Z
TLE epoch observation values (Epoch: 2025-07-02T13:25:11.366Z)
Latitude
-0°
Longitude
46.79512°
Altitude
687.87 km
Speed
7.525 km/s
True Right ascension
11h 15m 43s
True Declination
0° 00' 00"
Sunlit
Object was in daylight at epoch
Visualization orbit readout
Latitude
22.32494°
Longitude
-129.34504°
Altitude
699.905 km
Speed
7.514 km/s
Apparent Right ascension
01h 01m 27s
Apparent Declination
-7° 45' 39"
Sunlit
Object is in daylight
Visualization observer readout
Local Sidereal Time
15:05:00
Azimuth
49.007° ENE
Elevation
-47.632°
Doppler factor
1
Orbital elements
Apogee altitude
800.399 km
Perigee altitude
612.195 km
Semi-major axis
7,084.434 km
Eccentricity
0.01328
Inclination
98.0291°
RAAN
168.931°
Arg. of periapsis
75.8807°
True anomaly
Unknown
Mean anomaly
285.7111°
Eccentric anomaly
Unknown
Mean motion
3.63987 °/min
Orbital period
98.9 mins
BSTAR
0.00013312
Loading maneuver chart data...
Loading SW <> Apogee altitude chart data...
Loading historical data...
Loading historical data...
Loading historical data...
Loading historical data...
Loading historical data...
Loading historical data...
Loading historical data...

MKA PN2 (RELEK) Visibility forecast

Observer location: undefined°, undefined°

Span
Click to sort rows by Start time (UTC) header in descending order
Start Az.
Max El. time (UTC)
Max El. Az.
Max El.
End time (UTC)
End Az.
7 mins2025-07-03 11:26:50.759Z30.821° NE2025-07-03 11:30:50.759Z115.713° SE33.631°2025-07-03 11:33:50.759Z166.009° S
4 mins2025-07-03 13:06:50.759Z313.078° NW2025-07-03 13:07:50.759Z296.596° NW17.141°2025-07-03 13:10:50.759Z253.8° W
7 mins2025-07-03 22:33:50.759Z137.381° SSE2025-07-03 22:36:50.759Z77.01° E33.905°2025-07-03 22:40:50.759Z2.421° NNE
|